Weather History for Hoquiam, WA

Change the Weather History Date:

Saturday, November 24, 2012

  Actual Average Record
Temperature  
Mean Temperature 42 °F 44 °F  
Max Temperature 50 °F 49 °F 58 °F (1983)
Min Temperature 33 °F 39 °F 18 °F (1985)
Degree Days  
Heating Degree Days 24 21  
Month to date heating degree days 446  
Cooling Degree Days 0 0  
Month to date cooling degree days 0  
Year to date cooling degree days 23  
Moisture  
Dew Point 41 °F    
Average Humidity 97    
Maximum Humidity 100    
Minimum Humidity 80    
Precipitation  
Precipitation 0.01 in 0.38 in 4.06 in (1990)
Month to date precipitation 8.92  
Year to date precipitation 55.34  
Sea Level Pressure  
Sea Level Pressure 30.24 in    
Wind  
Wind Speed 2 mph (NE)    
Max Wind Speed 8 mph    
Max Gust Speed -    
Visibility 4 miles    
Events Fog    
T = Trace of Precipitation, MM = Missing Value Source: NWS Daily Summary

Daily Weather History Graph

Daily Weather History Graph

Search for Another Location

Airport:

Trip Planner

Search our weather history database for the weather conditions in past years. The results will help you decide how hot, cold, wet, or windy it might be!

Date:

Astronomy

Nov. 24, 2012 Rise Set
Actual Time 7:32 AM PST 4:32 PM PST
Civil Twilight 6:58 AM PST 5:06 PM PST
Nautical Twilight 6:20 AM PST 5:44 PM PST
Astronomical Twilight 5:44 AM PST 6:20 PM PST
Moon 2:29 PM PST (11/24) 3:43 AM PST (11/24)
Length of Visible Light 10h 08m
Length of Day
8h 59m
Waxing Gibbous, 88% of the Moon is Illuminated
Nov 24
Waxing Gibbous
Nov 28
Full
Dec 6
Last Quarter
Dec 13
New
Dec 19
First Quarter

Hourly Weather History & Observations

Time (PST) Temp. Windchill Dew Point Humidity Pressure Visibility Wind Dir Wind Speed Gust Speed Precip Events Conditions
12:53 AM 46.0 °F - 45.0 °F 96% 30.19 in 10.0 mi Calm Calm - 0.00 in   Mostly Cloudy
1:53 AM 43.0 °F - 42.1 °F 97% 30.21 in 6.0 mi Calm Calm - N/A   Partly Cloudy
2:34 AM 42.8 °F - 42.8 °F 100% 30.20 in 1.8 mi Calm Calm - N/A   Mostly Cloudy
2:38 AM 42.8 °F - 42.8 °F 100% 30.21 in 3.0 mi Calm Calm - N/A   Mostly Cloudy
2:53 AM 42.1 °F - 42.1 °F 100% 30.22 in 8.0 mi Calm Calm - N/A   Mostly Cloudy
3:27 AM 41.0 °F 38.0 °F 41.0 °F 100% 30.20 in 1.8 mi East 4.6 mph - N/A   Mostly Cloudy
3:37 AM 42.8 °F 41.1 °F 42.8 °F 100% 30.20 in 0.8 mi ENE 3.5 mph - N/A   Mostly Cloudy
3:41 AM 42.8 °F 41.1 °F 42.8 °F 100% 30.20 in 2.0 mi ENE 3.5 mph - N/A   Scattered Clouds
3:48 AM 42.8 °F 41.1 °F 42.8 °F 100% 30.20 in 5.0 mi ENE 3.5 mph - N/A   Scattered Clouds
3:53 AM 41.0 °F 38.0 °F 41.0 °F 100% 30.21 in 6.0 mi NE 4.6 mph - N/A   Scattered Clouds
4:04 AM 41.0 °F - 41.0 °F 100% 30.20 in 1.8 mi Calm Calm - N/A   Partly Cloudy
4:07 AM 39.2 °F 37.0 °F 39.2 °F 100% 30.20 in 0.8 mi ENE 3.5 mph - N/A   Mist
4:26 AM 41.0 °F - 41.0 °F 100% 30.21 in 0.2 mi Calm Calm - N/A Fog Fog
4:36 AM 41.0 °F - 41.0 °F 100% 30.21 in 0.5 mi Calm Calm - N/A Fog Fog
4:53 AM 41.0 °F - 39.0 °F 93% 30.22 in 0.2 mi Calm Calm - N/A Fog Fog
4:59 AM 39.2 °F - 39.2 °F 100% 30.21 in 0.5 mi Calm Calm - N/A Fog Fog
5:22 AM 39.2 °F 33.6 °F 37.4 °F 93% 30.22 in 0.5 mi NNW 8.1 mph - N/A Fog Fog
5:27 AM 39.2 °F 37.0 °F 39.2 °F 100% 30.22 in 1.0 mi North 3.5 mph - N/A   Overcast
5:32 AM 41.0 °F 39.0 °F 41.0 °F 100% 30.22 in 5.0 mi North 3.5 mph - N/A   Overcast
5:53 AM 43.0 °F - 43.0 °F 100% 30.24 in 10.0 mi Calm Calm - N/A   Overcast
6:00 AM 42.8 °F - 42.8 °F 100% 30.23 in 10.0 mi Calm Calm - N/A   Overcast
6:53 AM 42.1 °F 39.2 °F 42.1 °F 100% 30.24 in 8.0 mi NE 4.6 mph - N/A   Mostly Cloudy
7:53 AM 42.1 °F 37.7 °F 41.0 °F 96% 30.26 in 2.0 mi East 6.9 mph - N/A   Mostly Cloudy
7:56 AM 42.8 °F 39.3 °F 41.0 °F 93% 30.24 in 0.8 mi East 5.8 mph - N/A   Mostly Cloudy
8:04 AM 42.8 °F 39.3 °F 42.8 °F 100% 30.25 in 0.5 mi NE 5.8 mph - N/A Fog Fog
8:09 AM 42.8 °F 40.1 °F 42.8 °F 100% 30.25 in 0.2 mi ENE 4.6 mph - N/A Fog Fog
8:25 AM 42.8 °F 41.1 °F 41.0 °F 93% 30.25 in 0.5 mi NNE 3.5 mph - N/A Fog Fog
8:35 AM 41.0 °F 39.0 °F 41.0 °F 100% 30.24 in 1.2 mi ENE 3.5 mph - N/A   Mostly Cloudy
8:44 AM 39.2 °F - 39.2 °F 100% 30.24 in 2.0 mi Calm Calm - N/A   Mostly Cloudy
8:53 AM 39.9 °F - 39.9 °F 100% 30.26 in 1.8 mi Calm Calm - N/A   Partly Cloudy
9:06 AM 42.8 °F 41.1 °F 41.0 °F 93% 30.25 in 0.5 mi East 3.5 mph - N/A Fog Fog
9:14 AM 42.8 °F - 41.0 °F 93% 30.26 in 0.2 mi Calm Calm - N/A Fog Fog
9:26 AM 41.0 °F - 41.0 °F 100% 30.25 in 0.2 mi Calm Calm - N/A Fog Fog
9:53 AM 45.0 °F - 44.1 °F 97% 30.26 in 0.8 mi Calm Calm - N/A   Mist
9:55 AM 44.6 °F - 44.6 °F 100% 30.25 in 2.0 mi Calm Calm - N/A   Mostly Cloudy
10:00 AM 44.6 °F - 44.6 °F 100% 30.25 in 7.0 mi Calm Calm - N/A   Scattered Clouds
10:53 AM 45.0 °F - 44.1 °F 97% 30.26 in 8.0 mi Calm Calm - 0.01 in   Clear
11:48 AM 48.2 °F - 44.6 °F 87% 30.25 in 10.0 mi WSW 5.8 mph - N/A   Mostly Cloudy
11:53 AM 48.0 °F - 45.0 °F 89% 30.26 in 10.0 mi WSW 5.8 mph - N/A   Scattered Clouds
12:53 PM 50.0 °F - 44.1 °F 80% 30.25 in 7.0 mi West 4.6 mph - N/A   Mostly Cloudy
1:53 PM 50.0 °F - 45.0 °F 83% 30.25 in 9.0 mi Calm Calm - N/A   Overcast
2:53 PM 48.9 °F - 46.0 °F 90% 30.25 in 7.0 mi SSW 4.6 mph - N/A   Mostly Cloudy
3:53 PM 48.0 °F - 45.0 °F 89% 30.25 in 6.0 mi SW 4.6 mph - N/A   Scattered Clouds
4:44 PM 46.4 °F - 44.6 °F 93% 30.23 in 5.0 mi Calm Calm - N/A   Mostly Cloudy
4:53 PM 46.9 °F - 45.0 °F 93% 30.25 in 8.0 mi Calm Calm - N/A   Scattered Clouds
5:53 PM 44.1 °F - 41.0 °F 89% 30.25 in 10.0 mi Calm Calm - N/A   Clear
6:53 PM 41.0 °F - 39.9 °F 96% 30.25 in 10.0 mi Calm Calm - N/A   Clear
7:53 PM 39.9 °F - 37.9 °F 93% 30.25 in 10.0 mi Calm Calm - N/A   Clear
8:53 PM 37.9 °F - 37.0 °F 97% 30.26 in 10.0 mi Calm Calm - N/A   Clear
9:36 PM 37.4 °F - 35.6 °F 93% 30.26 in 2.0 mi Calm Calm - N/A   Partly Cloudy
9:46 PM 37.4 °F - 35.6 °F 93% 30.26 in 8.0 mi Calm Calm - N/A   Partly Cloudy
9:53 PM 37.0 °F - 36.0 °F 96% 30.27 in 10.0 mi Calm Calm - N/A   Partly Cloudy
10:10 PM 33.8 °F 28.6 °F 33.8 °F 100% 30.26 in 1.5 mi ENE 5.8 mph - N/A   Clear
10:13 PM 33.8 °F 28.6 °F 33.8 °F 100% 30.26 in 1.0 mi ENE 5.8 mph - N/A   Mist
10:20 PM 35.6 °F 31.7 °F 33.8 °F 93% 30.26 in 0.8 mi ENE 4.6 mph - N/A   Mist
10:34 PM 35.6 °F - 35.6 °F 100% 30.27 in 2.0 mi Calm Calm - N/A   Mostly Cloudy
10:41 PM 35.6 °F - 35.6 °F 100% 30.27 in 4.0 mi Calm Calm - N/A   Scattered Clouds
10:53 PM 36.0 °F - 35.1 °F 97% 30.28 in 9.0 mi Calm Calm - N/A   Partly Cloudy
11:14 PM 35.6 °F - 35.6 °F 100% 30.27 in 1.5 mi Calm Calm - N/A   Scattered Clouds
11:19 PM 35.6 °F - 35.6 °F 100% 30.28 in 0.8 mi Calm Calm - N/A   Mist
11:53 PM 35.1 °F 32.2 °F 34.0 °F 96% 30.29 in 0.2 mi NE 3.5 mph - N/A Fog Fog